Zurück zum Katalog

COSMOS 2251 DEB

AktivLEO
NORAD 33896·DEBRIS·🇷🇺 Russia

Gestartet Jun 16, 1993 von Plesetsk Cosmodrome

Loading…

Nächste Überflüge (nächste 24 Stunden)

TLE

AktuellSource: Space-Track

Epoche: Sep 13, 2026, 18:07 UTC

1 33896U 93036CZ  26256.75493940  .00001138  00000-0  50954-3 0  9991
2 33896  73.7685  17.0560 0123880 146.9518 331.5612 14.19723496906420

Verfolge COSMOS 2251 DEB in Echtzeit mit AllMySat

Download on the App Store